Date String (YYYY-MM-DD hh:mm:ss) UTC,Instrument flags,Ambient pressure (hPa),Sample flow (lpm),Bypass flow (lpm),Sample temperature (°C),Ambient temperature (°C),ASC tube jacket temperature (°C),LED temperature (°C),Box temperature (°C),Sample RH (%),Span deviation,Mass concentration (μg/m³),Mass concentration (μg/m³),Mass concentration (μg/m³)
DateTimeUTC,F1_M11,P_M11,Q1_M11,Q2_M11,T1_M11,T2_M11,T3_M11,T4_M11,T5_M11,U1_M11,ZSPAN_M11,X2_M11,X0_M11,X1_M11
2022-06-15 12:00:00,,0824.2,4.99,0.00,28.0,27.0,00.0,37.0,29.9,13.8,0003.6,0004.73,0009.29,0003.93
2022-06-15 12:01:00,,0824.3,5.00,0.00,28.0,27.0,00.0,37.0,29.9,13.7,0003.6,0004.76,0009.47,0003.92
2022-06-15 12:02:00,,0824.3,5.00,0.00,28.0,27.0,00.0,37.0,29.9,13.5,0003.7,0004.82,0009.65,0003.94
2022-06-15 12:03:00,,0824.2,5.00,0.00,28.0,27.0,00.0,37.0,29.9,13.4,0002.7,0004.84,0009.81,0003.95
2022-06-15 12:04:00,,0824.2,5.00,0.00,28.0,27.0,00.0,37.0,29.9,13.3,0002.9,0004.85,0009.74,0003.94
2022-06-15 12:05:00,,0824.3,5.00,0.00,28.0,27.0,00.0,37.0,29.9,13.2,0003.6,0004.86,0009.81,0003.96
2022-06-15 12:06:00,,0824.2,5.01,0.00,28.0,27.0,00.0,37.0,29.9,13.1,0003.1,0004.86,0009.91,0003.96
2022-06-15 12:07:00,,0824.1,5.01,0.00,28.0,26.9,00.0,37.0,29.9,13.0,0002.6,0004.82,0009.79,0003.96
2022-06-15 12:08:00,,0824.1,4.99,0.00,28.0,27.0,00.0,37.0,29.8,12.9,0001.7,0004.77,0009.71,0003.96
2022-06-15 12:09:00,,0824.1,5.00,0.00,28.0,27.0,00.0,37.0,29.8,12.9,0001.4,0004.77,0009.66,0003.97
2022-06-15 12:10:00,,0824.1,4.99,0.00,28.0,26.9,00.0,37.0,29.8,12.7,0000.9,0004.75,0010.10,0003.98
2022-06-15 12:11:00,,0824.1,4.99,0.00,27.9,26.9,00.0,36.9,29.8,12.5,0000.9,0004.72,0009.55,0003.99
2022-06-15 12:12:00,,0824.1,5.00,0.00,27.9,26.9,00.0,36.9,29.8,12.4,0001.2,0004.69,0009.23,0004.02
2022-06-15 12:13:00,,0824.1,5.00,0.00,27.9,26.9,00.0,36.9,29.7,12.1,0001.4,0004.65,0009.08,0004.03
2022-06-15 12:14:00,,0824.1,5.01,0.00,27.9,26.8,00.0,36.9,29.7,11.7,0001.9,0004.63,0009.01,0004.03
2022-06-15 12:15:00,,0824.1,5.00,0.00,27.9,26.8,00.0,36.9,29.7,11.4,0001.9,0004.59,0009.18,0004.04
2022-06-15 12:16:00,,0824.0,5.01,0.00,27.9,26.8,00.0,36.9,29.7,11.3,0001.4,0004.57,0009.11,0004.04
2022-06-15 12:17:00,,0824.0,4.99,0.00,27.8,26.8,00.0,36.9,29.7,11.4,0001.4,0004.59,0009.02,0004.07
2022-06-15 12:18:00,,0823.9,5.00,0.00,27.8,26.8,00.0,36.9,29.7,11.4,0001.3,0004.63,0009.12,0004.08
2022-06-15 12:19:00,,0823.9,4.99,0.00,27.8,26.8,00.0,36.9,29.7,11.3,0002.0,0004.67,0009.15,0004.09
2022-06-15 12:20:00,,0824.0,5.00,0.00,27.8,26.8,00.0,36.9,29.7,11.1,0002.2,0004.69,0009.21,0004.12
2022-06-15 12:21:00,,0824.0,5.00,0.00,27.8,26.7,00.0,36.8,29.6,11.1,0002.1,0004.72,0008.75,0004.14
2022-06-15 12:22:00,,0823.8,5.00,0.00,27.8,26.7,00.0,36.8,29.6,11.1,0002.6,0004.74,0008.65,0004.18
2022-06-15 12:23:00,,0823.9,5.01,0.00,27.8,26.7,00.0,36.8,29.6,11.1,0002.1,0004.77,0008.80,0004.20
2022-06-15 12:24:00,,0823.8,5.01,0.00,27.8,26.7,00.0,36.8,29.6,11.2,0001.7,0004.81,0008.95,0004.22
2022-06-15 12:25:00,,0823.7,5.00,0.00,27.8,26.7,00.0,36.8,29.6,11.2,0001.3,0004.87,0009.01,0004.25
2022-06-15 12:26:00,,0823.8,4.99,0.00,27.8,26.7,00.0,36.8,29.6,11.2,0000.6,0004.89,0008.81,0004.28
2022-06-15 12:27:00,,0823.8,5.00,0.00,27.8,26.7,00.0,36.8,29.6,11.2,0000.8,0004.93,0008.73,0004.31
2022-06-15 12:28:00,,0823.8,5.00,0.00,27.8,26.7,00.0,36.8,29.6,11.2,0001.2,0004.97,0008.81,0004.35
2022-06-15 12:29:00,,0823.9,5.00,0.00,27.8,26.7,00.0,36.8,29.6,11.2,0001.6,0005.02,0008.84,0004.39
2022-06-15 12:30:00,,0823.9,5.00,0.00,27.8,26.7,00.0,36.8,29.6,11.2,0001.3,0005.07,0008.90,0004.44
2022-06-15 12:31:00,,0823.8,4.99,0.00,27.8,26.7,00.0,36.8,29.6,11.1,0001.1,0005.10,0009.00,0004.46
2022-06-15 12:32:00,,0823.8,5.01,0.00,27.8,26.8,00.0,36.8,29.6,11.2,0001.3,0005.10,0008.97,0004.47
2022-06-15 12:33:00,,0823.8,5.00,0.00,27.8,26.8,00.0,36.7,29.7,11.2,0001.4,0005.09,0008.88,0004.49
2022-06-15 12:34:00,,0823.8,5.01,0.00,27.8,26.8,00.0,36.7,29.7,11.1,0001.7,0005.10,0009.30,0004.51
2022-06-15 12:35:00,,0823.8,4.99,0.00,27.8,26.9,00.0,36.8,29.7,11.1,0002.1,0005.14,0009.34,0004.54
2022-06-15 12:36:00,,0823.8,5.01,0.00,27.8,26.9,00.0,36.8,29.8,11.2,0002.4,0005.13,0009.23,0004.56
2022-06-15 12:37:00,,0823.9,4.99,0.00,27.9,26.9,00.0,36.8,29.8,11.2,0002.4,0005.14,0009.22,0004.57
2022-06-15 12:38:00,,0824.0,5.00,0.00,27.9,27.0,00.0,36.8,29.8,11.1,0002.6,0005.16,0009.52,0004.59
2022-06-15 12:39:00,,0824.0,4.99,0.00,27.9,27.0,00.0,36.8,29.8,11.2,0002.4,0005.18,0010.04,0004.59
2022-06-15 12:40:00,,0823.9,5.01,0.00,27.9,27.0,00.0,36.8,29.9,11.3,0002.1,0005.22,0010.19,0004.58
2022-06-15 12:41:00,,0823.8,5.00,0.00,27.9,27.0,00.0,36.8,29.9,11.2,0002.1,0005.21,0010.18,0004.57
2022-06-15 12:42:00,,0823.8,5.00,0.00,28.0,27.1,00.0,36.8,29.9,11.3,0002.4,0005.25,0010.19,0004.57
2022-06-15 12:43:00,,0823.8,5.00,0.00,28.0,27.1,00.0,36.8,29.9,11.4,0001.8,0005.27,0010.27,0004.56
2022-06-15 12:44:00,,0823.9,4.99,0.00,28.0,27.1,00.0,36.8,30.0,11.6,0001.3,0005.26,0010.33,0004.55
2022-06-15 12:45:00,,0823.9,4.99,0.00,28.0,27.1,00.0,36.8,30.0,11.7,0001.3,0005.24,0010.03,0004.52
2022-06-15 12:46:00,,0823.9,5.01,0.00,28.0,27.1,00.0,36.8,30.0,11.9,0000.5,0005.25,0010.21,0004.47
2022-06-15 12:47:00,,0824.0,5.01,0.00,28.0,27.2,00.0,36.9,30.0,12.1,0000.8,0005.21,0010.39,0004.41
2022-06-15 12:48:00,,0824.0,5.01,0.00,28.1,27.2,00.0,36.9,30.0,12.2,0001.2,0005.19,0010.52,0004.37
2022-06-15 12:49:00,,0824.1,5.01,0.00,28.1,27.2,00.0,36.9,30.0,12.4,0001.3,0005.15,0010.32,0004.32
2022-06-15 12:50:00,,0824.1,4.99,0.00,28.1,27.2,00.0,36.9,30.0,12.7,0001.1,0005.12,0009.92,0004.26
2022-06-15 12:51:00,,0824.0,5.00,0.00,28.1,27.2,00.0,36.9,30.0,13.0,0001.3,0005.07,0009.92,0004.18
2022-06-15 12:52:00,,0824.0,4.99,0.00,28.1,27.2,00.0,36.9,30.1,13.3,0001.6,0005.02,0010.00,0004.10
2022-06-15 12:53:00,,0824.0,5.01,0.00,28.1,27.2,00.0,36.9,30.1,13.6,0001.4,0004.98,0010.14,0003.99
2022-06-15 12:54:00,,0824.0,4.99,0.00,28.1,27.2,00.0,36.9,30.1,13.9,0001.8,0004.91,0010.13,0003.91
2022-06-15 12:55:00,,0824.0,5.00,0.00,28.1,27.2,00.0,37.0,30.0,14.1,0001.7,0004.88,0010.16,0003.83
2022-06-15 12:56:00,,0824.1,5.00,0.00,28.1,27.2,00.0,37.0,30.0,14.2,0000.9,0004.85,0010.25,0003.74
2022-06-15 12:57:00,,0824.1,5.01,0.00,28.1,27.2,00.0,37.0,30.0,14.2,0001.2,0004.74,0010.00,0003.68
2022-06-15 12:58:00,,0824.1,5.00,0.00,28.1,27.2,00.0,37.0,30.0,14.2,-000.2,0004.66,0009.78,0003.62
2022-06-15 12:59:00,,0824.1,5.00,0.00,28.1,27.2,00.0,37.0,30.0,14.2,-000.8,0004.68,0009.82,0003.57
